Location: Osteria Carlettani
(46.1500°N, 11.5167°E)
Time: 02:59:04
(UTC+00:00)

Daily predictions for brighter satellites

Satellite Brightness Start Highest point End
(mag) Time Altitude Azimuth Time Altitude Azimuth Time Altitude Azimuth
SL-16 R/B 4.2 01:04:18 25° NNW 01:04:18 25° NNW 01:06:41 10° NNW
ADEOS II 3.9 01:01:37 10° NNE 01:04:24 27° NE 01:04:24 27° NE
Cosmos 1697 Rocket 4.1 01:14:51 34° NNE 01:14:51 34° NNE 01:17:57 10° NNE
Cosmos 1980 Rocket 3.5 01:20:37 37° ENE 01:20:37 37° ENE 01:24:18 10° NE
Cosmos 2263 Rocket 3.6 01:16:46 10° NNW 01:21:57 35° NE 01:27:06 10° ESE
USA 234 4.2 01:18:58 10° E 01:25:03 43° NNE 01:28:11 27° NW
SL-16 R/B 4.1 01:38:10 20° ESE 01:39:17 22° E 01:43:29 10° NE
Cosmos 1238 Rocket 4.3 01:44:06 10° N 01:50:36 62° ENE 01:51:14 58° ESE
Resurs 1-4 Rocket 3.8 01:49:33 10° N 01:51:58 24° NNW 01:51:58 24° NNW
CZ-2D R/B 3.8 01:52:46 10° N 01:55:14 24° NNW 01:55:14 24° NNW
ASTEX 1 4.2 01:54:40 10° NNE 01:59:09 50° ENE 01:59:09 50° ENE
Nadezhda 3 Rocket 4.2 02:01:33 58° NNW 02:01:33 58° NNW 02:06:37 10° N
SJ 16-02 3.6 02:01:47 10° NNW 02:02:59 18° N 02:02:59 18° N
Cosmos 1605 Rocket 4.5 02:02:29 10° N 02:08:51 61° ENE 02:14:28 13° SSE
Gbstr 26 Del rocket 4.3 02:06:54 49° WNW 02:09:26 88° SSW 02:17:00 10° ESE
Cosmos 2228 Rocket 4.1 02:10:30 44° NE 02:10:30 44° NE 02:13:54 10° NNE
Cosmos 1535 Rocket 4.4 02:04:38 10° N 02:11:05 88° E 02:12:01 68° SSE
Lacrosse 5 2.9 02:13:50 38° N 02:13:50 38° N 02:18:05 10° NE
ATLAS 5 CENTAUR R/B 4.2 02:16:15 12° NNW 02:17:08 13° NNW 02:19:18 10° NNE
H-2A R/B 3.7 02:17:17 10° SE 02:21:17 35° ENE 02:25:23 10° N
Cosmos 2278 4.1 02:23:24 51° NW 02:23:24 51° NW 02:28:31 10° NNE
ARIANE 5 R/B 2.4 02:20:41 10° NNE 02:25:30 79° N 02:25:30 79° N
Cosmos 1763 Rocket 4.4 02:24:23 35° SSE 02:25:59 46° ESE 02:31:03 10° NNE
IRS-P3 4.3 02:21:00 10° N 02:25:44 60° NW 02:25:44 60° NW
NOSS 3-4 (A) 4.5 02:19:51 10° NW 02:26:37 54° NE 02:34:04 10° ESE
NOSS 3-4 (C) 4.5 02:19:57 10° NNW 02:26:42 54° NE 02:34:10 10° ESE
SL-4 R/B 3.0 02:27:59 45° ESE 02:27:59 45° ESE 02:32:03 10° ENE
NOAA 9 4.5 02:25:33 10° NNE 02:31:00 87° WNW 02:31:30 74° SSW
USA 267 3.2 02:25:50 10° NE 02:32:24 81° SE 02:34:08 53° SW
CZ-2C R/B 3.6 02:29:08 10° NNE 02:32:41 47° E 02:32:41 47° E
USA 305 4.2 02:34:11 33° N 02:34:11 33° N 02:37:51 10° NE
NOSS 3-3 (A) 3.8 02:34:42 64° WSW 02:35:41 80° NW 02:42:24 10° NE
NOSS 3-3 (C) 3.8 02:34:50 64° WSW 02:35:48 81° NW 02:42:29 10° NE
USA 306 4.1 02:38:23 32° NNW 02:38:23 32° NNW 02:42:14 10° NE
DEBRIS 4.4 02:42:07 22° SE 02:42:07 22° SE 02:43:58 10° ESE
ADEOS Rocket 4.3 02:34:56 10° SE 02:40:59 41° ENE 02:46:31 10° N
ADEOS II 3.2 02:41:33 10° N 02:45:20 30° NW 02:45:20 30° NW
Cosmos 1727 Rocket 4.3 02:42:11 14° S 02:47:35 69° E 02:53:52 10° NNE
Cosmos 1339 Rocket 4.4 02:47:25 44° SSW 02:49:28 71° W 02:55:40 10° N
Cosmos 990 Rocket 3.8 02:44:28 10° NNW 02:49:42 83° WSW 02:54:55 10° SSE
CZ-4B R/B 4.4 02:48:04 10° ESE 02:50:11 17° ENE 02:52:21 10° NNE
IDEFIX/ARIANE 42P 2.5 02:45:00 10° N 02:50:15 69° WNW 02:51:13 56° SW
ATLAS 2AS CENTAUR R/B 3.3 02:43:00 10° NW 02:50:31 61° NE 02:57:24 10° SE
Cosmos 921 Rocket 3.5 02:52:56 45° NNW 02:52:56 45° NNW 02:56:18 10° N
Cosmos 2360 Rocket 3.5 02:47:36 10° S 02:52:44 37° ESE 02:57:54 10° NE
Cosmos 1697 Rocket 4.2 02:56:36 21° NW 02:56:58 21° NW 03:01:11 10° N
Cosmos 468 Rocket 3.9 02:57:17 44° SSW 02:59:00 84° WNW 03:04:18 10° NNE
Celestis-02/Orion 38 4.4 02:55:37 10° SSE 03:00:50 70° WSW 03:06:00 10° NNW
Cosmos 1980 Rocket 3.1 03:02:25 30° WNW 03:03:05 31° NW 03:08:05 10° N
Cosmos 2263 Rocket 2.5 03:00:39 10° NW 03:05:58 42° WSW 03:11:15 10° S
Cosmos 44 Rocket 4.0 03:03:33 25° S 03:06:03 50° ESE 03:10:44 10° NE
Meteor 1-11 Rocket 3.6 03:01:16 10° NNW 03:07:04 84° W 03:12:41 10° S
USA 307 4.3 03:06:10 24° NW 03:07:30 29° N 03:11:15 10° NE
USA 234 3.2 03:01:10 10° SE 03:07:43 88° SSW 03:14:18 10° NW
Cosmos 1844 Rocket 3.5 03:05:13 10° NNW 03:10:44 52° ENE 03:16:14 10° SE
USA 308 4.4 03:09:21 23° NW 03:10:52 29° N 03:14:37 10° NE
Cosmos 44 4.4 03:10:35 26° NW 03:11:07 26° NW 03:15:08 10° NNE
Cosmos 2322 Rocket 2.1 03:08:23 28° SSW 03:11:30 90° NNW 03:17:15 10° NNE
Meteor 1-4 Rocket 2.9 03:13:45 46° NW 03:13:45 46° NW 03:16:43 10° N
Meteor 1-27 Rocket 3.8 03:10:09 10° S 03:16:05 88° ESE 03:22:02 10° NNE
Cosmos 1666 2.6 03:13:08 10° NNW 03:16:55 62° W 03:18:11 38° SSW
Cosmos 1707 Rocket 3.4 03:14:39 28° SSW 03:16:55 81° W 03:21:18 10° N
CZ-2D R/B 4.2 03:13:44 10° N 03:17:36 34° WNW 03:17:38 34° WNW
Cosmos 1812 3.6 03:21:36 32° WNW 03:21:36 32° WNW 03:24:39 10° N
SL-16 R/B 2.2 03:20:04 30° SW 03:22:52 63° WNW 03:28:31 10° NNE
CZ-3B R/B 3.7 03:21:32 20° NW 03:24:00 38° N 03:35:08 10° ENE
Cosmos 1437 Rocket 4.4 03:21:53 10° SSE 03:25:21 35° E 03:28:53 10° NNE
USA 276 2.5 03:25:21 38° NW 03:26:19 60° NNE 03:29:31 10° E
Cosmos 372 Rocket 4.3 03:22:57 10° NNW 03:28:06 69° ENE 03:33:11 10° SSE
Cosmos 1536 2.7 03:25:12 10° NNW 03:29:15 66° W 03:33:17 10° S
Cosmos 2237 4.3 03:24:47 12° SSW 03:30:08 78° ESE 03:35:52 10° NNE
Cosmos 2173 Rocket 4.0 03:25:19 10° N 03:31:42 87° W 03:38:05 10° S
Cosmos 1733 Rocket 2.9 03:27:20 10° N 03:31:43 86° W 03:36:01 10° S
ATLAS CENTAUR R/B 3.7 03:22:31 10° NW 03:32:25 48° NNE 03:36:25 10° E
CZ-2C R/B 2.5 03:28:11 10° NNE 03:33:22 83° WNW 03:38:34 10° SSW
Cosmos 1898 Rocket 3.9 03:29:32 10° NW 03:34:24 39° WSW 03:39:16 10° S
ALOS 3.4 03:34:01 10° NNE 03:38:32 45° E 03:43:00 10° S
CZ-4C R/B 3.8 03:33:52 10° NNW 03:40:42 51° NE 03:48:38 10° ESE
Cosmos 2219 Rocket 3.9 03:36:22 10° SSE 03:41:22 33° ESE 03:46:25 10° NE
MSX 4.3 03:36:41 10° N 03:42:02 40° WNW 03:45:54 18° SW
Cosmos 1689 Rocket 4.4 03:41:25 10° SE 03:44:01 28° ENE 03:46:38 10° N
Cosmos 2298 Rocket 4.5 03:39:04 10° NNW 03:44:22 66° ENE 03:49:38 10° SSE
Landsat 5 4.3 03:42:39 10° SSW 03:46:41 32° W 03:50:42 10° NNW
PSLV R/B 3.6 03:43:03 10° N 03:47:09 53° WNW 03:50:59 11° SSW
Meteor 2-20 4.5 03:43:12 10° S 03:49:20 89° E 03:55:28 10° N
Cosmos 1862 Rocket 3.4 03:47:15 10° SSW 03:51:37 71° W 03:55:58 10° N
Cosmos 1937 Rocket 4.0 03:50:49 10° NW 03:55:26 34° WSW 04:00:01 10° SSW
H-2A R/B 3.1 03:53:37 10° SSW 03:57:18 26° W 04:01:04 10° NW
Lacrosse 5 3.6 03:53:18 10° WNW 03:57:23 24° N 04:01:29 10° NE
COSMOS 2428 4.1 03:54:23 10° S 03:59:40 40° ESE 04:05:00 10° NE
Cosmos 2208 Rocket 4.0 03:54:57 10° SSW 04:00:09 68° WNW 04:05:21 10° NNE
X-37B 2.5 03:59:50 15° SW 04:00:13 15° SSW 04:02:10 10° S
ERBS 4.2 03:58:34 13° WNW 04:00:28 19° NNW 04:02:58 10° NNE
Cosmos 841 Rocket 3.7 03:56:41 10° SW 04:01:48 54° WNW 04:06:59 10° NNE
ERS-2 2.8 03:59:08 10° SSW 04:02:25 31° W 04:05:44 10° NW
Cosmos 2016 Rocket 3.9 03:57:06 10° NNW 04:03:13 75° W 04:09:16 10° S
FALCON 9 DEB 3.9 04:01:05 18° W 04:03:16 40° NNW 04:06:33 10° NE
ATLAS 5 CENTAUR R/B 4.4 04:01:44 10° NNW 04:04:05 13° NNE 04:06:36 10° NE
ARIANE 5 R/B 4.3 04:01:38 10° NNW 04:04:06 14° NW 04:05:49 12° WNW
Cosmos 1743 2.6 04:01:00 10° NNW 04:04:46 62° W 04:08:32 10° S
Cosmos 2061 Rocket 4.0 03:58:57 10° NNW 04:05:23 74° W 04:11:47 10° S
Cosmos 1814 Rocket 4.1 04:00:50 10° SSW 04:05:59 62° WNW 04:11:16 10° NNE
CZ-2C R/B 4.5 04:04:35 10° NNW 04:06:55 16° WNW 04:08:05 14° W
Cosmos 1125 Rocket 4.0 04:01:52 10° NNW 04:07:08 64° ENE 04:12:20 10° SSE
SL-4 R/B 2.6 04:03:35 16° W 04:07:14 58° NNW 04:12:00 10° ENE
Cosmos 2333 Rocket 2.9 04:03:11 10° S 04:08:49 60° ESE 04:14:29 10° NNE
PSLV R/B 4.5 04:06:47 10° SSE 04:10:48 64° ENE 04:14:52 10° N
Cosmos 2150 Rocket 4.1 04:06:56 10° NNW 04:12:26 81° WSW 04:17:48 10° SSE
Cosmos 2233 Rocket 4.3 04:07:18 10° N 04:13:27 73° E 04:19:34 10° SSE
METEOR-M 4.3 04:09:08 10° NNE 04:14:31 82° ESE 04:19:52 10° SSW
Cosmos 2322 3.8 04:08:57 10° SSW 04:14:36 83° ESE 04:20:18 10° NNE
USA 305 4.4 04:11:06 10° NW 04:14:51 29° N 04:18:36 10° ENE
Cosmos 1544 2.9 04:11:29 10° NNW 04:15:04 69° W 04:18:37 10° S
USA 267 3.9 04:09:00 10° NE 04:15:10 46° NNW 04:21:19 10° W
NOSS 3-4 (A) 4.2 04:10:54 10° NW 04:17:33 43° WSW 04:24:48 10° S
NOSS 3-4 (C) 4.2 04:11:00 10° NW 04:17:39 44° WSW 04:24:55 10° S
COSMOS 2455 4.2 04:12:29 10° NNW 04:18:14 42° NE 04:23:56 10° ESE
USA 306 4.4 04:15:29 10° NW 04:19:15 30° N 04:23:02 10° ENE
CZ-4B R/B 2.1 04:19:24 10° SSW 04:22:14 29° W 04:25:09 10° NW
ADEOS 3.7 04:19:35 10° N 04:24:42 55° WNW 04:29:46 10° SSW
Cosmos 1725 Rocket 4.0 04:19:00 10° NNW 04:25:06 62° W 04:31:10 10° S
Cosmos 540 Rocket 4.2 04:21:41 10° SW 04:26:23 34° WNW 04:31:08 10° N
ADEOS Rocket 3.6 04:20:26 10° SSW 04:26:32 37° W 04:32:07 10° NNW
Cosmos 1975 2.8 04:23:57 10° NNW 04:27:59 79° W 04:31:58 10° S
IDEFIX/ARIANE 42P 4.5 04:27:05 10° NNW 04:28:53 12° NW 04:30:40 10° WNW
COSMO-SKYMED 1 2.6 04:24:48 10° SSE 04:29:09 85° WSW 04:33:31 10° NNW
Cosmos 2333 4.3 04:26:59 10° SSW 04:32:45 73° WNW 04:38:33 10° NNE
Meteor 1-18 Rocket 4.2 04:27:45 10° SSW 04:33:16 72° WNW 04:38:52 10° N
Meteor 1-19 Rocket 4.2 04:28:38 10° SSW 04:34:08 76° WNW 04:39:49 10° N
FENGYUN 3A 3.8 04:30:37 10° N 04:35:54 57° WNW 04:41:11 10° SSW
Cosmos 2360 Rocket 2.8 04:31:25 10° WSW 04:36:42 39° NW 04:42:01 10° NNE
